Regional Weather Roundup
Issued by NWS Charleston, SC

Current Version | Previous Version | Graphics & Text | Print | Product List | Glossary On
Versions: 1 2 3 4 5 6 7 8 9 10 11 12 13 14 15 16 17 18 19 20 21 22 23 24 25 26 27 28 29 30 31 32 33 34 35 36 37 38 39 40 41 42 43 44 45 46 47 48 49 50
000
ASUS42 KCHS 280510
RWRCHS
REGIONAL WEATHER ROUNDUP
NATIONAL WEATHER SERVICE CHARLESTON SC
1200 AM EST WED JAN 28 2015

NOTE: "FAIR" INDICATES FEW OR NO CLOUDS BELOW 12,000 FEET WITH NO
SIGNIFICANT WEATHER AND/OR OBSTRUCTIONS TO VISIBILITY.

NOT ALL STATIONS ARE QUALITY CONTROLLED BY THE NATIONAL
WEATHER SERVICE. USE DATA WITH CAUTION...ESPECIALLY
DEWPOINT OBSERVATIONS.

SCZ027-030-031-034>040-042>050-280600-
...SOUTHEAST SOUTH CAROLINA...

CITY           SKY/WX    TMP DP  RH WIND       PRES   REMARKS
N CHARLESTON   CLEAR     39  29  67 NW8       30.02R WCI  33
WATERFRONT PRK   N/A     43 N/A N/A W6          N/A
MOUNT PLEASANT FAIR     N/A N/A N/A CALM      30.01R
PINOPOLIS      NOT AVBL
MONCKS CORNER  FAIR      39  30  70 CALM      30.02R
SUMMERVILLE    NOT AVBL
BEAUFORT MCAS  CLEAR     42  31  64 NW9       30.03R
BEAUFORT ARPT  FAIR      43  34  70 NW9       30.03R
HILTON HEAD IS CLEAR     45  32  61 W7G16     30.04R
WALTERBORO     CLEAR     37  30  75 N5        30.04R WCI  34
ALLENDALE      FAIR      41  28  60 NW8G15    30.04R

...SOUTHERN MIDLANDS AND PEE DEE...

CITY           SKY/WX    TMP DP  RH WIND       PRES   REMARKS
GEORGETOWN     NOT AVBL
KINGSTREE      NOT AVBL
ORANGEBURG     CLEAR     36  25  64 NW3       30.05R
BARNWELL       FAIR      37  28  70 N6        30.06R WCI  33
AIKEN          FAIR      36  27  69 N3        30.07R
MANNING        FAIR      32  28  86 CALM      30.03R
COLUMBIA       CLEAR     39  24  55 NW7       30.04R WCI  34
SUMTER         CLEAR     36  24  60 W7        30.01R WCI  31
FLORENCE       CLEAR     37  21  52 N9        30.01R WCI  30
MYRTLE BEACH   CLEAR     36  25  64 NW7       30.02R WCI  30
N MYRTLE BEACH CLEAR     36  23  59 W3        29.99R

$$

GAZ063-065-086>088-099>101-113>116-118-119-134>141-150-280600-
...SOUTHEAST GEORGIA...

CITY           SKY/WX    TMP DP  RH WIND       PRES   REMARKS
SAVANNAH ARPT  CLEAR     40  30  67 NW8       30.05R WCI  34
HUNTER AAF     CLEAR     42  31  66 NW9       30.03R
FORT STEWART   NOT AVBL
STATESBORO     CLEAR     40  32  74 NW7       30.06R WCI  35
SYLVANIA       CLEAR     40  32  72 NW7       30.06R WCI  35
CLAXTON        FAIR      39  32  75 W6        30.07R WCI  35

...CSRA...CENTRAL AND FAR SOUTHEAST GEORGIA...

CITY           SKY/WX    TMP DP  RH WIND       PRES   REMARKS
THOMSON        CLEAR     38  31  76 CALM      30.10S
AUGUSTA-BUSH   CLEAR     36  27  69 NW8       30.06R WCI  30
AUGUSTA-DANIEL CLEAR     40  28  62 NW8       30.05R WCI  34
SWAINSBORO     FAIR      39  27  60 NW6       30.08R WCI  35
VIDALIA        CLEAR     41  32  70 NW7       30.08R
EASTMAN        FAIR      40  33  73 NW6       30.12R WCI  36
HAZLEHURST     FAIR      43  33  68 N9        30.08R
ALMA           CLEAR     42  30  62 NW7       30.09R
WAYCROSS       CLEAR     42  35  74 N3        30.09R
JESUP          FAIR      37  34  87 CALM      30.08R
BAXLEY         FAIR      43  32  65 NW8       30.08R
BRUNSWICK      CLEAR     41  32  70 W5        30.08R
SAINT SIMONS   CLEAR     43  32  65 W8        30.06R

$$

SCZ027-028-034-036>038-045-046-048>050-GAZ119-141-280600-
...LAKE AND SUPPLEMENTAL COASTAL OBSERVATIONS...

STATION/POSITION TIME  TEMP    WIND        PRES    WAVE   SWELL
                       AIR SEA DIR/SP/G            HT/PER HT/PER/DIR
                 (UTC) (F)     (DEG/KT/KT) (MB)    (FT/S) (FT/S/D)
UPR LAKE MARION  NOT AVBL
WINYAH BAY       NOT AVBL
LAKE MURRAY      0400   37     330/  1/  5 1016.3R
ACE BASIN NERRS  NOT AVBL
FORT PULASKI     0400   46 52  300/ 14/ 17 1016.9R
SAPELO ISLAND    0400   44     290/  5     1017.0R

$$

ANZ835-935-AMZ111-154-330-350-352-354-370-450-454-472-280600-
...C-MAN AND BUOY OBSERVATIONS...

STATION/POSITION TIME  TEMP    WIND        PRES    WAVE   SWELL
                       AIR SEA DIR/SP/G            HT/PER HT/PER/DIR
                 (UTC) (F)     (DEG/KT/KT) (MB)    (FT/S) (FT/S/D)
BUOY 41004       0450   51 67  320/ 14/ 19 1015.2R   3/ 5   2/ 9
BUOY 41008       0450   50 54  330/ 21/ 23 1016.6R   3/ 4
FOLLY BEACH CMAN 0400   40     260/  4/  5 1016.3R
CAPERS NEARSHORE 0400   47     300/  8/  8   N/A
FRIPP NEARSHORE  0400   49     290/ 10/ 12   N/A


STATION/POSITION TIME  TEMP    WIND        PRES    WAVE   SWELL
                       AIR SEA DIR/SP/G            HT/PER HT/PER/DIR
                 (UTC) (F)     (DEG/KT/KT) (MB)    (FT/S) (FT/S/D)
5E ST. MARYS GA  0422      58                N/A     2/ 4
FRYING PAN BUOY  0450   47 65  320/ 16/ 21 1014.8R   5/ 4   2/ 80/13
BUOY 41025       0450   40     340/ 17/ 21 1012.2R   8/14   7/ 50/14
CAPE LOOKOUT NC  0400   39     330/  9/ 11 1013.5R
BUOY 41002       0450   56 71  310/ 23/ 31 1011.0R  13/ 8  10/330/10
BUOY 41010       0420   65 75  320/ 23/ 27 1013.6R
ST AUGUSTINE FL  0500   48     330/  7/  8 1018.7R


$$


USA.gov is the U.S. government's official web portal to all federal, state and local government web resources and services.